QPF
0.00 0.00 0.01 0.01 0.01 0.00 0.00 0.00 0.00 0.00 0.00 0.00 0.00 0.00 0.00 0.00 0.00 0.01 0.01 0.01 0.01 0.00 0.01 0.01 0.02 0.02 0.03 0.03 0.03 0.04 0.04 0.03 0.02 0.02 0.02 0.02 0.02 0.01 0.01 0.01 0.01 0.01 0.01 0.01 0.02 0.03 0.03 0.02 0.02
0.01 0.01 0.02 0.02 0.01 0.00 0.00 0.00 0.00 0.00 0.00 0.00 0.00 0.00 0.00 0.00 0.00 0.00 0.01 0.00 0.00 0.00 0.01 0.01 0.01 0.02 0.03 0.03 0.03 0.04 0.04 0.03 0.03 0.02 0.01 0.01 0.01 0.02 0.02 0.02 0.01 0.01 0.01 0.01 0.01 0.02 0.02 0.02 0.02
0.01 0.02 0.03 0.02 0.01 0.01 0.00 0.00 0.00 0.00 0.00 0.00 0.00 0.00 0.00 0.00 0.00 0.00 0.01 0.00 0.00 0.00 0.00 0.01 0.01 0.02 0.03 0.03 0.04 0.04 0.04 0.04 0.03 0.03 0.02 0.02 0.02 0.02 0.02 0.02 0.02 0.02 0.02 0.02 0.01 0.01 0.01 0.01 0.01
0.02 0.03 0.04 0.02 0.01 0.01 0.01 0.00 0.00 0.00 0.00 0.00 0.00 0.00 0.00 0.00 0.00 0.01 0.01 0.00 0.00 0.00 0.00 0.00 0.01 0.02 0.03 0.03 0.04 0.04 0.04 0.04 0.03 0.04 0.04 0.03 0.03 0.03 0.03 0.03 0.03 0.03 0.03 0.02 0.02 0.02 0.02 0.02 0.01
0.03 0.04 0.03 0.01 0.00 0.00 0.00 0.00 0.00 0.00 0.00 0.00 0.00 0.00 0.00 0.00 0.00 0.01 0.01 0.00 0.00 0.00 0.00 0.01 0.01 0.02 0.03 0.03 0.03 0.03 0.04 0.04 0.04 0.03 0.04 0.03 0.03 0.03 0.02 0.02 0.02 0.02 0.03 0.03 0.02 0.02 0.02 0.01 0.01
0.03 0.03 0.02 0.01 0.00 0.00 0.00 0.00 0.00 0.00 0.00 0.00 0.00 0.00 0.00 0.01 0.01 0.01 0.01 0.01 0.01 0.01 0.01 0.01 0.02 0.02 0.03 0.03 0.03 0.03 0.04 0.04 0.05 0.04 0.03 0.04 0.03 0.03 0.02 0.02 0.02 0.02 0.02 0.02 0.02 0.01 0.01 0.01 0.01
0.02 0.02 0.01 0.01 0.00 0.00 0.00 0.00 0.00 0.00 0.01 0.00 0.00 0.00 0.01 0.01 0.01 0.01 0.01 0.01 0.01 0.01 0.02 0.02 0.03 0.03 0.04 0.04 0.05 0.06 0.05 0.04 0.05 0.05 0.04 0.03 0.03 0.02 0.01 0.01 0.02 0.02 0.02 0.02 0.02 0.01 0.01 0.00 0.00
0.02 0.02 0.01 0.01 0.01 0.00 0.00 0.01 0.00 0.00 0.00 0.00 0.00 0.01 0.01 0.01 0.01 0.01 0.01 0.01 0.01 0.01 0.02 0.03 0.04 0.04 0.04 0.04 0.05 0.06 0.06 0.05 0.04 0.04 0.03 0.02 0.02 0.02 0.02 0.02 0.01 0.01 0.01 0.01 0.01 0.01 0.01 0.00 0.00
0.03 0.04 0.02 0.01 0.01 0.00 0.00 0.00 0.00 0.00 0.00 0.00 0.01 0.01 0.01 0.01 0.01 0.01 0.01 0.01 0.02 0.02 0.03 0.03 0.04 0.04 0.04 0.05 0.05 0.06 0.07 0.07 0.06 0.04 0.04 0.04 0.03 0.02 0.02 0.02 0.02 0.02 0.01 0.01 0.01 0.01 0.01 0.00 0.00
0.04 0.04 0.02 0.01 0.00 0.00 0.00 0.00 0.00 0.00 0.00 0.01 0.01 0.01 0.02 0.02 0.02 0.01 0.01 0.01 0.02 0.03 0.03 0.03 0.03 0.04 0.05 0.05 0.05 0.07 0.08 0.09 0.09 0.07 0.04 0.04 0.03 0.02 0.01 0.02 0.02 0.02 0.01 0.01 0.01 0.01 0.01 0.01 0.00
0.03 0.03 0.02 0.01 0.00 0.00 0.00 0.00 0.00 0.00 0.00 0.00 0.00 0.01 0.02 0.03 0.02 0.02 0.02 0.02 0.02 0.03 0.03 0.03 0.03 0.04 0.05 0.05 0.06 0.07 0.09 0.11 0.12 0.10 0.06 0.05 0.04 0.02 0.01 0.01 0.02 0.01 0.01 0.01 0.01 0.00 0.00 0.00 0.00
0.02 0.02 0.02 0.01 0.01 0.01 0.00 0.00 0.00 0.00 0.00 0.00 0.00 0.01 0.02 0.03 0.02 0.02 0.02 0.02 0.03 0.04 0.05 0.04 0.04 0.04 0.04 0.06 0.06 0.07 0.09 0.11 0.12 0.10 0.09 0.06 0.04 0.03 0.01 0.01 0.01 0.01 0.00 0.00 0.00 0.00 0.00 0.00 0.00
0.02 0.01 0.01 0.01 0.01 0.01 0.00 0.00 0.00 0.00 0.00 0.00 0.00 0.01 0.02 0.03 0.03 0.03 0.03 0.03 0.04 0.06 0.07 0.06 0.05 0.05 0.05 0.06 0.07 0.08 0.09 0.11 0.13 0.11 0.10 0.09 0.04 0.02 0.01 0.00 0.00 0.00 0.00 0.00 0.00 0.00 0.00 0.00 0.00
0.02 0.01 0.01 0.01 0.02 0.01 0.01 0.01 0.01 0.01 0.01 0.00 0.01 0.01 0.02 0.03 0.05 0.04 0.04 0.04 0.05 0.07 0.09 0.09 0.08 0.07 0.07 0.06 0.06 0.06 0.09 0.11 0.14 0.16 0.13 0.11 0.07 0.03 0.01 0.00 0.00 0.00 0.00 0.00 0.00 0.00 0.00 0.00 0.00
0.02 0.02 0.02 0.02 0.02 0.01 0.01 0.01 0.01 0.01 0.01 0.01 0.01 0.02 0.02 0.03 0.05 0.06 0.05 0.04 0.05 0.08 0.11 0.11 0.11 0.09 0.09 0.07 0.06 0.05 0.08 0.11 0.13 0.17 0.19 0.16 0.11 0.06 0.02 0.01 0.00 0.00 0.00 0.00 0.00 0.00 0.00 0.00 0.00
0.03 0.03 0.03 0.03 0.02 0.02 0.02 0.02 0.01 0.01 0.02 0.02 0.02 0.02 0.03 0.03 0.04 0.06 0.06 0.05 0.05 0.08 0.11 0.12 0.13 0.12 0.11 0.10 0.08 0.07 0.08 0.11 0.14 0.16 0.19 0.23 0.21 0.13 0.06 0.02 0.01 0.00 0.00 0.00 0.00 0.00 0.00 0.00 0.00
0.05 0.05 0.04 0.03 0.02 0.02 0.02 0.01 0.01 0.01 0.02 0.02 0.02 0.02 0.03 0.03 0.03 0.05 0.06 0.06 0.06 0.08 0.09 0.11 0.13 0.13 0.14 0.12 0.11 0.10 0.10 0.12 0.15 0.15 0.18 0.22 0.27 0.24 0.15 0.06 0.01 0.01 0.00 0.00 0.00 0.00 0.00 0.00 0.00
0.04 0.04 0.04 0.03 0.02 0.02 0.02 0.01 0.01 0.02 0.02 0.02 0.02 0.03 0.03 0.03 0.03 0.03 0.05 0.05 0.06 0.07 0.09 0.09 0.12 0.14 0.15 0.14 0.13 0.13 0.11 0.12 0.12 0.14 0.14 0.17 0.22 0.29 0.26 0.15 0.06 0.02 0.01 0.00 0.00 0.00 0.00 0.00 0.00
0.03 0.04 0.04 0.03 0.02 0.03 0.03 0.02 0.02 0.02 0.03 0.04 0.02 0.02 0.03 0.03 0.03 0.02 0.04 0.05 0.06 0.06 0.08 0.08 0.09 0.10 0.12 0.13 0.14 0.15 0.14 0.15 0.14 0.15 0.13 0.13 0.16 0.21 0.28 0.23 0.13 0.05 0.02 0.01 0.00 0.00 0.00 0.00 0.00
0.03 0.04 0.05 0.04 0.04 0.04 0.04 0.03 0.03 0.03 0.03 0.03 0.03 0.03 0.03 0.03 0.03 0.03 0.03 0.04 0.05 0.05 0.07 0.10 0.10 0.10 0.08 0.10 0.12 0.13 0.13 0.14 0.12 0.12 0.13 0.13 0.14 0.15 0.19 0.23 0.18 0.11 0.05 0.02 0.02 0.01 0.01 0.01 0.01
0.04 0.04 0.06 0.05 0.04 0.04 0.04 0.04 0.03 0.02 0.03 0.02 0.02 0.03 0.03 0.02 0.03 0.03 0.03 0.03 0.03 0.04 0.07 0.10 0.13 0.12 0.10 0.08 0.12 0.14 0.11 0.10 0.11 0.10 0.11 0.11 0.11 0.12 0.14 0.18 0.18 0.14 0.10 0.06 0.04 0.03 0.03 0.02 0.02
0.04 0.03 0.05 0.05 0.06 0.07 0.04 0.05 0.03 0.03 0.03 0.03 0.02 0.02 0.02 0.01 0.02 0.02 0.03 0.03 0.03 0.04 0.06 0.08 0.12 0.14 0.13 0.09 0.10 0.15 0.11 0.07 0.07 0.08 0.10 0.10 0.09 0.09 0.11 0.16 0.19 0.18 0.13 0.09 0.07 0.05 0.03 0.01 0.01
0.04 0.04 0.05 0.05 0.05 0.07 0.04 0.04 0.03 0.02 0.02 0.02 0.02 0.01 0.01 0.01 0.01 0.02 0.03 0.03 0.03 0.04 0.06 0.07 0.08 0.12 0.17 0.16 0.12 0.15 0.15 0.08 0.05 0.06 0.07 0.09 0.08 0.08 0.09 0.11 0.15 0.19 0.16 0.11 0.08 0.06 0.04 0.02 0.01
0.03 0.05 0.06 0.06 0.07 0.09 0.04 0.04 0.03 0.02 0.02 0.01 0.02 0.02 0.02 0.02 0.02 0.02 0.03 0.04 0.04 0.04 0.05 0.08 0.08 0.08 0.13 0.20 0.16 0.15 0.17 0.12 0.05 0.04 0.05 0.07 0.08 0.07 0.08 0.09 0.10 0.13 0.15 0.13 0.12 0.10 0.08 0.05 0.04
0.05 0.09 0.12 0.13 0.11 0.06 0.02 0.02 0.03 0.03 0.02 0.02 0.02 0.03 0.03 0.03 0.03 0.02 0.03 0.04 0.05 0.04 0.05 0.07 0.09 0.09 0.08 0.15 0.18 0.17 0.18 0.16 0.10 0.05 0.05 0.06 0.07 0.07 0.07 0.07 0.08 0.09 0.09 0.09 0.09 0.11 0.14 0.13 0.11
0.06 0.08 0.10 0.09 0.06 0.03 0.02 0.03 0.03 0.03 0.04 0.04 0.04 0.04 0.03 0.02 0.02 0.03 0.04 0.05 0.06 0.05 0.05 0.06 0.07 0.09 0.09 0.10 0.15 0.16 0.18 0.18 0.16 0.12 0.08 0.08 0.08 0.07 0.07 0.08 0.07 0.08 0.08 0.07 0.07 0.07 0.09 0.12 0.14
0.06 0.06 0.05 0.05 0.03 0.03 0.03 0.03 0.02 0.02 0.03 0.04 0.04 0.05 0.04 0.03 0.02 0.03 0.04 0.05 0.06 0.06 0.05 0.06 0.06 0.06 0.08 0.09 0.10 0.12 0.15 0.16 0.17 0.16 0.14 0.12 0.08 0.06 0.05 0.06 0.07 0.09 0.10 0.08 0.08 0.07 0.05 0.05 0.05
0.03 0.03 0.04 0.06 0.05 0.04 0.02 0.03 0.04 0.04 0.04 0.04 0.05 0.07 0.05 0.04 0.03 0.03 0.04 0.05 0.07 0.07 0.05 0.06 0.06 0.06 0.06 0.07 0.08 0.08 0.10 0.10 0.11 0.13 0.14 0.12 0.10 0.07 0.06 0.06 0.06 0.06 0.08 0.08 0.08 0.07 0.05 0.04 0.03
0.01 0.03 0.04 0.04 0.04 0.05 0.04 0.04 0.04 0.04 0.04 0.04 0.06 0.07 0.06 0.04 0.04 0.03 0.03 0.04 0.06 0.07 0.05 0.05 0.06 0.07 0.07 0.07 0.07 0.07 0.08 0.08 0.07 0.07 0.08 0.08 0.08 0.08 0.08 0.07 0.07 0.06 0.06 0.06 0.05 0.05 0.06 0.05 0.04
0.01 0.01 0.02 0.04 0.03 0.03 0.04 0.04 0.03 0.03 0.03 0.04 0.05 0.05 0.05 0.04 0.03 0.03 0.03 0.03 0.05 0.06 0.06 0.04 0.05 0.06 0.07 0.07 0.06 0.06 0.07 0.07 0.06 0.05 0.05 0.05 0.05 0.06 0.07 0.07 0.07 0.06 0.04 0.03 0.03 0.03 0.03 0.04 0.04
MSLP
1014.23 1014.52 1014.94 1015.40 1015.81 1016.07 1016.11 1015.91 1015.49 1014.95 1014.41 1014.01 1013.84 1013.95 1014.33 1014.92 1015.61 1016.29 1016.88 1017.32 1017.62 1017.83 1018.01 1018.24 1018.55 1018.94 1019.38 1019.82 1020.18 1020.43 1020.54 1020.54 1020.47 1020.39 1020.35 1020.38 1020.48 1020.62 1020.77 1020.87 1020.91 1020.88 1020.81 1020.71 1020.63 1020.58 1020.58 1020.60 1020.61
1014.58 1014.87 1015.24 1015.59 1015.86 1015.97 1015.87 1015.57 1015.13 1014.63 1014.20 1013.95 1013.93 1014.18 1014.66 1015.29 1015.97 1016.60 1017.10 1017.46 1017.69 1017.85 1018.01 1018.24 1018.57 1019.00 1019.47 1019.94 1020.33 1020.60 1020.75 1020.78 1020.75 1020.71 1020.71 1020.76 1020.87 1021.01 1021.14 1021.23 1021.25 1021.21 1021.13 1021.04 1020.97 1020.93 1020.93 1020.95 1020.95
1014.99 1015.25 1015.52 1015.74 1015.83 1015.75 1015.51 1015.12 1014.67 1014.24 1013.95 1013.86 1014.02 1014.42 1015.01 1015.69 1016.37 1016.95 1017.39 1017.67 1017.83 1017.95 1018.10 1018.32 1018.67 1019.11 1019.60 1020.08 1020.49 1020.79 1020.96 1021.03 1021.05 1021.05 1021.08 1021.15 1021.27 1021.40 1021.51 1021.56 1021.56 1021.50 1021.41 1021.32 1021.26 1021.23 1021.23 1021.25 1021.25
1015.43 1015.64 1015.80 1015.84 1015.74 1015.49 1015.10 1014.64 1014.19 1013.85 1013.69 1013.77 1014.10 1014.64 1015.33 1016.06 1016.73 1017.27 1017.66 1017.89 1018.01 1018.11 1018.26 1018.49 1018.85 1019.30 1019.79 1020.27 1020.68 1020.99 1021.18 1021.29 1021.34 1021.38 1021.44 1021.54 1021.66 1021.77 1021.86 1021.89 1021.86 1021.79 1021.69 1021.60 1021.54 1021.52 1021.53 1021.56 1021.56
1015.87 1016.01 1016.03 1015.91 1015.64 1015.22 1014.72 1014.21 1013.78 1013.52 1013.48 1013.71 1014.17 1014.83 1015.58 1016.33 1016.99 1017.50 1017.85 1018.06 1018.18 1018.30 1018.46 1018.73 1019.10 1019.56 1020.06 1020.52 1020.92 1021.22 1021.42 1021.54 1021.62 1021.69 1021.78 1021.90 1022.03 1022.14 1022.21 1022.23 1022.19 1022.11 1022.01 1021.92 1021.86 1021.84 1021.86 1021.88 1021.89
1016.24 1016.30 1016.21 1015.95 1015.53 1015.00 1014.42 1013.89 1013.50 1013.31 1013.38 1013.71 1014.27 1014.97 1015.74 1016.48 1017.11 1017.59 1017.92 1018.13 1018.29 1018.45 1018.67 1018.99 1019.41 1019.88 1020.37 1020.83 1021.20 1021.48 1021.67 1021.79 1021.89 1021.98 1022.10 1022.23 1022.37 1022.50 1022.57 1022.59 1022.56 1022.48 1022.39 1022.30 1022.24 1022.22 1022.23 1022.24 1022.24
1016.50 1016.48 1016.28 1015.91 1015.40 1014.81 1014.21 1013.71 1013.37 1013.26 1013.41 1013.80 1014.38 1015.09 1015.82 1016.51 1017.08 1017.53 1017.85 1018.09 1018.30 1018.54 1018.85 1019.24 1019.71 1020.21 1020.71 1021.14 1021.49 1021.75 1021.92 1022.04 1022.14 1022.25 1022.39 1022.54 1022.70 1022.84 1022.94 1022.98 1022.96 1022.90 1022.82 1022.74 1022.68 1022.64 1022.62 1022.61 1022.59
1016.62 1016.51 1016.23 1015.79 1015.23 1014.64 1014.07 1013.63 1013.37 1013.34 1013.55 1013.96 1014.53 1015.18 1015.84 1016.44 1016.95 1017.35 1017.66 1017.94 1018.22 1018.55 1018.95 1019.43 1019.96 1020.50 1021.00 1021.42 1021.75 1021.99 1022.15 1022.26 1022.37 1022.49 1022.65 1022.82 1023.00 1023.17 1023.29 1023.35 1023.36 1023.32 1023.26 1023.18 1023.11 1023.06 1023.01 1022.96 1022.92
1016.60 1016.40 1016.05 1015.56 1015.01 1014.45 1013.96 1013.61 1013.44 1013.49 1013.74 1014.15 1014.68 1015.25 1015.81 1016.31 1016.74 1017.09 1017.41 1017.72 1018.07 1018.49 1018.98 1019.54 1020.12 1020.69 1021.20 1021.63 1021.95 1022.17 1022.33 1022.45 1022.57 1022.71 1022.87 1023.07 1023.26 1023.44 1023.58 1023.67 1023.70 1023.69 1023.64 1023.58 1023.50 1023.43 1023.35 1023.27 1023.20
1016.47 1016.18 1015.76 1015.26 1014.73 1014.24 1013.85 1013.60 1013.54 1013.66 1013.93 1014.33 1014.80 1015.28 1015.74 1016.14 1016.49 1016.81 1017.13 1017.47 1017.88 1018.37 1018.94 1019.55 1020.18 1020.77 1021.29 1021.72 1022.04 1022.28 1022.45 1022.59 1022.73 1022.88 1023.07 1023.26 1023.46 1023.64 1023.79 1023.89 1023.94 1023.95 1023.93 1023.87 1023.80 1023.71 1023.61 1023.51 1023.42
1016.31 1015.92 1015.45 1014.93 1014.44 1014.02 1013.72 1013.57 1013.59 1013.76 1014.05 1014.43 1014.83 1015.24 1015.61 1015.94 1016.24 1016.53 1016.86 1017.24 1017.70 1018.23 1018.84 1019.48 1020.12 1020.72 1021.25 1021.68 1022.03 1022.29 1022.49 1022.67 1022.84 1023.02 1023.21 1023.41 1023.60 1023.77 1023.91 1024.00 1024.07 1024.09 1024.08 1024.05 1023.98 1023.90 1023.79 1023.68 1023.58
1016.20 1015.72 1015.20 1014.67 1014.20 1013.83 1013.59 1013.51 1013.58 1013.77 1014.06 1014.39 1014.74 1015.08 1015.40 1015.69 1015.97 1016.27 1016.62 1017.03 1017.52 1018.08 1018.70 1019.35 1019.98 1020.57 1021.10 1021.54 1021.91 1022.21 1022.47 1022.69 1022.91 1023.11 1023.31 1023.50 1023.67 1023.82 1023.93 1024.02 1024.07 1024.11 1024.12 1024.10 1024.07 1024.00 1023.91 1023.81 1023.71
1016.22 1015.67 1015.11 1014.56 1014.10 1013.75 1013.53 1013.46 1013.52 1013.68 1013.92 1014.20 1014.50 1014.79 1015.07 1015.36 1015.66 1016.00 1016.39 1016.84 1017.36 1017.94 1018.55 1019.17 1019.78 1020.35 1020.86 1021.32 1021.72 1022.07 1022.39 1022.67 1022.93 1023.17 1023.38 1023.56 1023.70 1023.82 1023.90 1023.96 1024.01 1024.05 1024.08 1024.09 1024.08 1024.05 1023.99 1023.91 1023.84
1016.40 1015.84 1015.26 1014.70 1014.22 1013.85 1013.59 1013.46 1013.44 1013.52 1013.67 1013.86 1014.09 1014.34 1014.62 1014.93 1015.28 1015.68 1016.14 1016.65 1017.20 1017.79 1018.38 1018.98 1019.55 1020.09 1020.59 1021.06 1021.50 1021.90 1022.28 1022.62 1022.93 1023.20 1023.42 1023.59 1023.71 1023.80 1023.85 1023.90 1023.94 1023.98 1024.03 1024.07 1024.10 1024.10 1024.08 1024.04 1023.98
1016.75 1016.22 1015.65 1015.09 1014.59 1014.16 1013.81 1013.56 1013.40 1013.33 1013.33 1013.40 1013.54 1013.74 1014.02 1014.37 1014.79 1015.28 1015.82 1016.40 1017.00 1017.60 1018.19 1018.77 1019.31 1019.84 1020.34 1020.82 1021.29 1021.74 1022.17 1022.57 1022.92 1023.22 1023.45 1023.62 1023.73 1023.80 1023.84 1023.87 1023.91 1023.96 1024.03 1024.10 1024.16 1024.20 1024.21 1024.19 1024.16
1017.20 1016.74 1016.23 1015.69 1015.16 1014.65 1014.19 1013.77 1013.42 1013.14 1012.95 1012.87 1012.89 1013.04 1013.31 1013.70 1014.20 1014.77 1015.41 1016.06 1016.72 1017.36 1017.97 1018.54 1019.08 1019.60 1020.11 1020.61 1021.11 1021.61 1022.08 1022.52 1022.91 1023.23 1023.47 1023.65 1023.76 1023.83 1023.87 1023.91 1023.96 1024.03 1024.12 1024.21 1024.29 1024.35 1024.39 1024.39 1024.36
1017.65 1017.31 1016.88 1016.39 1015.84 1015.26 1014.65 1014.05 1013.49 1012.99 1012.59 1012.32 1012.21 1012.29 1012.54 1012.95 1013.51 1014.16 1014.88 1015.62 1016.34 1017.03 1017.68 1018.28 1018.84 1019.38 1019.91 1020.45 1020.98 1021.50 1022.01 1022.47 1022.87 1023.21 1023.47 1023.66 1023.80 1023.89 1023.96 1024.03 1024.11 1024.20 1024.30 1024.40 1024.50 1024.56 1024.60 1024.60 1024.57
1017.98 1017.77 1017.45 1017.02 1016.47 1015.83 1015.10 1014.33 1013.56 1012.85 1012.24 1011.80 1011.56 1011.55 1011.76 1012.18 1012.77 1013.49 1014.27 1015.07 1015.86 1016.61 1017.31 1017.96 1018.57 1019.16 1019.74 1020.31 1020.87 1021.42 1021.93 1022.40 1022.81 1023.15 1023.43 1023.65 1023.82 1023.96 1024.08 1024.20 1024.32 1024.44 1024.56 1024.66 1024.75 1024.81 1024.83 1024.82 1024.78
1018.12 1018.03 1017.82 1017.45 1016.92 1016.24 1015.42 1014.52 1013.59 1012.71 1011.94 1011.35 1011.00 1010.90 1011.07 1011.47 1012.06 1012.80 1013.61 1014.46 1015.29 1016.10 1016.85 1017.57 1018.25 1018.91 1019.54 1020.16 1020.76 1021.32 1021.84 1022.30 1022.70 1023.04 1023.33 1023.58 1023.80 1024.00 1024.19 1024.37 1024.55 1024.71 1024.84 1024.95 1025.02 1025.05 1025.06 1025.03 1024.98
1018.05 1018.04 1017.90 1017.58 1017.08 1016.39 1015.53 1014.56 1013.54 1012.55 1011.69 1011.01 1010.58 1010.42 1010.54 1010.90 1011.47 1012.18 1012.99 1013.83 1014.68 1015.51 1016.31 1017.10 1017.85 1018.59 1019.30 1019.97 1020.61 1021.19 1021.70 1022.15 1022.53 1022.86 1023.16 1023.44 1023.71 1023.99 1024.26 1024.52 1024.76 1024.96 1025.11 1025.21 1025.27 1025.28 1025.26 1025.22 1025.18
1017.82 1017.83 1017.71 1017.42 1016.94 1016.26 1015.41 1014.44 1013.41 1012.40 1011.52 1010.82 1010.36 1010.18 1010.25 1010.56 1011.07 1011.72 1012.46 1013.25 1014.06 1014.89 1015.71 1016.54 1017.36 1018.18 1018.96 1019.70 1020.38 1020.97 1021.49 1021.92 1022.28 1022.61 1022.92 1023.23 1023.56 1023.91 1024.26 1024.60 1024.90 1025.15 1025.33 1025.43 1025.48 1025.47 1025.44 1025.41 1025.38
1017.59 1017.54 1017.39 1017.09 1016.61 1015.96 1015.15 1014.23 1013.26 1012.32 1011.49 1010.84 1010.41 1010.22 1010.27 1010.51 1010.93 1011.47 1012.10 1012.78 1013.51 1014.27 1015.08 1015.92 1016.78 1017.66 1018.51 1019.31 1020.04 1020.67 1021.19 1021.62 1021.97 1022.30 1022.62 1022.96 1023.34 1023.76 1024.19 1024.60 1024.97 1025.27 1025.47 1025.59 1025.64 1025.63 1025.61 1025.59 1025.60
1017.53 1017.36 1017.12 1016.78 1016.30 1015.68 1014.93 1014.09 1013.23 1012.40 1011.68 1011.13 1010.76 1010.60 1010.62 1010.80 1011.10 1011.50 1011.96 1012.48 1013.06 1013.71 1014.44 1015.25 1016.12 1017.04 1017.95 1018.81 1019.59 1020.26 1020.81 1021.25 1021.62 1021.95 1022.29 1022.67 1023.09 1023.57 1024.06 1024.54 1024.97 1025.31 1025.55 1025.70 1025.76 1025.77 1025.77 1025.79 1025.85
1017.82 1017.50 1017.15 1016.74 1016.23 1015.63 1014.94 1014.20 1013.46 1012.78 1012.19 1011.74 1011.45 1011.31 1011.31 1011.40 1011.57 1011.79 1012.05 1012.36 1012.75 1013.24 1013.84 1014.57 1015.42 1016.33 1017.28 1018.19 1019.03 1019.75 1020.35 1020.83 1021.23 1021.59 1021.96 1022.37 1022.84 1023.36 1023.91 1024.44 1024.92 1025.30 1025.58 1025.75 1025.84 1025.88 1025.92 1025.99 1026.12
1018.57 1018.11 1017.64 1017.15 1016.61 1016.02 1015.39 1014.73 1014.10 1013.53 1013.07 1012.71 1012.48 1012.36 1012.31 1012.30 1012.31 1012.33 1012.36 1012.44 1012.60 1012.88 1013.32 1013.93 1014.70 1015.59 1016.54 1017.49 1018.38 1019.17 1019.83 1020.37 1020.83 1021.23 1021.64 1022.09 1022.60 1023.16 1023.74 1024.31 1024.83 1025.25 1025.57 1025.77 1025.90 1025.98 1026.07 1026.19 1026.37
1019.79 1019.23 1018.68 1018.13 1017.56 1016.97 1016.36 1015.77 1015.20 1014.72 1014.32 1014.02 1013.81 1013.66 1013.54 1013.42 1013.26 1013.07 1012.87 1012.70 1012.62 1012.67 1012.92 1013.37 1014.03 1014.85 1015.79 1016.75 1017.69 1018.54 1019.28 1019.90 1020.42 1020.89 1021.36 1021.85 1022.39 1022.98 1023.59 1024.18 1024.72 1025.17 1025.52 1025.76 1025.93 1026.05 1026.18 1026.35 1026.57
1021.40 1020.80 1020.23 1019.65 1019.06 1018.47 1017.86 1017.28 1016.74 1016.27 1015.88 1015.58 1015.35 1015.14 1014.93 1014.67 1014.35 1013.96 1013.54 1013.13 1012.81 1012.64 1012.67 1012.95 1013.47 1014.20 1015.08 1016.04 1017.00 1017.91 1018.72 1019.42 1020.03 1020.57 1021.10 1021.64 1022.21 1022.82 1023.44 1024.05 1024.60 1025.07 1025.44 1025.72 1025.92 1026.08 1026.24 1026.44 1026.69
1023.21 1022.65 1022.10 1021.53 1020.95 1020.35 1019.73 1019.13 1018.56 1018.05 1017.62 1017.26 1016.95 1016.66 1016.34 1015.96 1015.49 1014.93 1014.32 1013.71 1013.18 1012.79 1012.63 1012.71 1013.08 1013.68 1014.48 1015.40 1016.36 1017.31 1018.18 1018.95 1019.64 1020.27 1020.86 1021.45 1022.05 1022.67 1023.31 1023.91 1024.47 1024.95 1025.33 1025.63 1025.86 1026.05 1026.24 1026.45 1026.70
1024.99 1024.52 1024.04 1023.52 1022.96 1022.36 1021.71 1021.06 1020.43 1019.85 1019.33 1018.88 1018.48 1018.09 1017.67 1017.18 1016.60 1015.92 1015.17 1014.42 1013.72 1013.16 1012.81 1012.72 1012.92 1013.38 1014.07 1014.91 1015.84 1016.79 1017.69 1018.53 1019.29 1019.98 1020.63 1021.27 1021.90 1022.53 1023.16 1023.77 1024.32 1024.80 1025.19 1025.51 1025.76 1025.97 1026.16 1026.38 1026.62
1026.51 1026.16 1025.77 1025.32 1024.79 1024.18 1023.51 1022.81 1022.10 1021.43 1020.82 1020.28 1019.78 1019.31 1018.82 1018.26 1017.62 1016.88 1016.06 1015.22 1014.41 1013.72 1013.23 1012.98 1013.01 1013.32 1013.88 1014.62 1015.48 1016.39 1017.30 1018.17 1018.97 1019.72 1020.42 1021.09 1021.75 1022.39 1023.01 1023.61 1024.15 1024.63 1025.03 1025.35 1025.62 1025.84 1026.04 1026.25 1026.47
Thickness
5695 5701 5706 5701 5688 5683 5691 5714 5730 5736 5744 5755 5760 5758 5752 5745 5740 5728 5746 5759 5758 5755 5752 5748 5747 5745 5744 5743 5742 5741 5740 5739 5738 5737 5736 5735 5733 5733 5732 5730 5729 5729 5728 5727 5726 5725 5724 5722 5721
5688 5694 5693 5685 5675 5674 5691 5713 5721 5731 5743 5751 5752 5751 5746 5740 5744 5740 5746 5751 5752 5749 5746 5744 5742 5741 5739 5738 5737 5736 5736 5735 5734 5733 5732 5731 5730 5729 5728 5727 5726 5725 5724 5723 5722 5721 5720 5719 5718
5681 5685 5677 5673 5672 5679 5695 5715 5720 5731 5740 5741 5738 5741 5736 5731 5735 5736 5741 5745 5744 5742 5740 5737 5736 5735 5734 5733 5732 5731 5731 5730 5729 5728 5728 5727 5725 5725 5724 5723 5722 5721 5720 5719 5718 5717 5716 5715 5714
5672 5669 5667 5663 5669 5689 5699 5709 5717 5720 5726 5731 5729 5724 5727 5728 5730 5731 5736 5737 5736 5734 5732 5730 5729 5729 5728 5727 5726 5726 5725 5725 5724 5723 5723 5722 5721 5720 5719 5718 5717 5716 5716 5715 5714 5713 5712 5710 5710
5661 5656 5651 5653 5666 5685 5698 5706 5710 5707 5710 5717 5718 5712 5710 5718 5724 5725 5726 5728 5727 5726 5725 5722 5722 5722 5721 5721 5721 5720 5720 5719 5719 5719 5717 5717 5716 5715 5714 5713 5712 5712 5711 5710 5709 5708 5707 5706 5705
5644 5646 5642 5646 5662 5679 5690 5697 5697 5695 5699 5705 5705 5701 5698 5707 5711 5714 5716 5717 5718 5717 5716 5715 5715 5715 5715 5715 5715 5714 5714 5714 5713 5713 5712 5711 5710 5709 5709 5708 5707 5707 5707 5706 5704 5704 5703 5702 5701
5631 5633 5637 5646 5654 5664 5678 5685 5681 5681 5683 5688 5695 5689 5688 5693 5699 5704 5706 5708 5708 5707 5707 5706 5706 5707 5707 5708 5708 5708 5708 5708 5707 5707 5706 5705 5705 5704 5703 5702 5702 5702 5701 5700 5699 5698 5698 5697 5696
5624 5623 5628 5636 5642 5652 5666 5670 5672 5670 5672 5682 5684 5675 5673 5679 5688 5693 5695 5696 5697 5697 5697 5697 5697 5699 5700 5700 5701 5701 5701 5701 5700 5700 5700 5699 5698 5698 5697 5696 5696 5696 5695 5695 5694 5693 5692 5691 5691
5615 5606 5614 5626 5632 5640 5651 5652 5657 5663 5663 5666 5667 5664 5667 5671 5675 5678 5680 5682 5684 5686 5687 5688 5689 5691 5692 5693 5694 5694 5694 5694 5694 5693 5693 5693 5692 5692 5691 5690 5689 5689 5689 5688 5688 5687 5687 5686 5686
5599 5594 5608 5620 5623 5625 5633 5636 5641 5645 5645 5647 5649 5653 5658 5659 5659 5661 5665 5668 5671 5674 5677 5680 5681 5683 5685 5686 5687 5687 5687 5687 5687 5687 5687 5687 5686 5686 5684 5683 5683 5682 5682 5682 5682 5681 5681 5681 5680
5590 5591 5601 5606 5610 5612 5615 5618 5625 5627 5625 5630 5634 5638 5643 5646 5647 5649 5653 5658 5661 5665 5668 5671 5673 5675 5677 5678 5679 5680 5680 5680 5680 5680 5681 5681 5680 5679 5678 5677 5676 5676 5676 5676 5675 5675 5675 5675 5675
5581 5585 5591 5593 5596 5598 5600 5604 5607 5609 5611 5621 5626 5629 5631 5632 5635 5639 5642 5647 5652 5655 5658 5662 5665 5667 5669 5670 5672 5673 5673 5673 5674 5674 5674 5674 5673 5673 5672 5671 5670 5670 5669 5670 5669 5669 5670 5670 5669
5570 5575 5580 5582 5584 5585 5587 5590 5593 5597 5604 5612 5617 5619 5620 5622 5625 5629 5634 5638 5642 5645 5649 5653 5656 5658 5661 5662 5664 5665 5665 5666 5666 5667 5667 5667 5667 5666 5665 5665 5664 5663 5663 5663 5663 5663 5664 5663 5663
5564 5567 5569 5570 5571 5574 5574 5578 5582 5586 5595 5599 5603 5605 5609 5612 5615 5619 5624 5627 5631 5636 5640 5644 5647 5650 5653 5655 5656 5657 5658 5658 5658 5659 5660 5660 5660 5659 5658 5657 5657 5656 5656 5656 5657 5657 5656 5656 5656
5557 5555 5558 5561 5564 5567 5566 5565 5572 5581 5586 5587 5591 5595 5599 5603 5606 5609 5614 5618 5622 5627 5631 5635 5638 5641 5644 5647 5649 5650 5650 5650 5650 5651 5651 5651 5650 5650 5650 5650 5649 5649 5649 5649 5649 5649 5648 5648 5648
5548 5544 5543 5555 5558 5561 5555 5553 5567 5575 5577 5578 5583 5588 5591 5594 5597 5600 5604 5607 5612 5617 5622 5625 5629 5631 5634 5638 5640 5641 5642 5642 5642 5642 5642 5643 5642 5642 5641 5642 5641 5641 5641 5641 5641 5640 5639 5639 5639
5537 5534 5539 5545 5552 5554 5550 5550 5561 5568 5571 5571 5574 5579 5582 5585 5588 5591 5595 5598 5603 5607 5611 5615 5618 5621 5625 5628 5630 5632 5633 5633 5633 5633 5633 5633 5634 5634 5633 5633 5634 5633 5633 5633 5633 5632 5631 5630 5630
5525 5529 5535 5537 5544 5544 5543 5547 5556 5561 5564 5565 5568 5571 5574 5576 5578 5582 5586 5590 5594 5598 5601 5604 5608 5612 5616 5618 5620 5622 5623 5623 5624 5624 5625 5625 5626 5625 5625 5625 5625 5625 5624 5624 5624 5623 5623 5622 5622
5525 5524 5526 5534 5540 5536 5538 5543 5551 5555 5558 5559 5561 5564 5567 5569 5572 5575 5578 5582 5585 5588 5592 5594 5598 5601 5604 5607 5610 5611 5612 5613 5613 5614 5616 5616 5616 5616 5616 5617 5616 5617 5616 5616 5616 5615 5614 5613 5614
5518 5515 5519 5528 5535 5532 5532 5537 5547 5552 5554 5555 5557 5559 5561 5562 5565 5568 5569 5572 5575 5579 5582 5585 5588 5591 5595 5597 5601 5603 5603 5603 5605 5605 5606 5606 5607 5607 5608 5608 5607 5608 5607 5607 5607 5606 5605 5605 5606
5513 5509 5512 5516 5522 5531 5529 5532 5541 5548 5551 5553 5555 5557 5557 5557 5558 5561 5562 5563 5566 5571 5573 5576 5579 5582 5585 5588 5590 5593 5594 5593 5594 5594 5595 5596 5596 5597 5597 5598 5599 5599 5599 5599 5598 5598 5597 5596 5596
5503 5509 5510 5511 5509 5513 5522 5516 5535 5542 5543 5546 5547 5549 5549 5550 5551 5553 5554 5555 5557 5560 5564 5566 5569 5572 5575 5579 5581 5583 5584 5584 5584 5585 5586 5587 5587 5587 5589 5589 5590 5590 5591 5591 5590 5590 5589 5588 5586
5499 5505 5506 5508 5505 5505 5517 5512 5529 5537 5535 5540 5542 5542 5542 5544 5544 5545 5547 5549 5550 5551 5554 5557 5560 5564 5567 5569 5572 5573 5574 5574 5574 5575 5577 5578 5578 5579 5580 5580 5581 5581 5582 5583 5582 5582 5581 5580 5579
5498 5499 5504 5506 5500 5497 5515 5514 5520 5525 5530 5534 5534 5535 5536 5537 5537 5538 5539 5541 5541 5542 5544 5548 5552 5555 5557 5560 5562 5562 5563 5564 5564 5565 5566 5568 5568 5569 5570 5571 5572 5573 5573 5574 5573 5573 5573 5572 5571
5489 5482 5485 5487 5490 5501 5519 5513 5513 5524 5527 5528 5526 5527 5528 5529 5528 5528 5529 5531 5532 5533 5535 5538 5541 5544 5547 5550 5552 5552 5553 5554 5556 5557 5557 5559 5558 5559 5560 5562 5562 5563 5564 5564 5564 5564 5564 5564 5562
5481 5478 5473 5476 5485 5499 5510 5505 5512 5520 5520 5520 5519 5518 5519 5519 5519 5520 5520 5522 5523 5525 5527 5529 5531 5534 5536 5540 5540 5542 5544 5545 5546 5548 5549 5549 5550 5551 5552 5553 5553 5554 5555 5555 5554 5554 5554 5554 5553
5474 5472 5476 5472 5478 5480 5499 5510 5509 5512 5511 5511 5509 5508 5507 5508 5511 5511 5511 5512 5514 5516 5517 5519 5521 5523 5525 5528 5529 5532 5534 5535 5537 5538 5539 5540 5541 5542 5543 5543 5545 5545 5546 5545 5545 5544 5544 5544 5543
5472 5473 5468 5467 5470 5480 5497 5502 5495 5498 5500 5501 5501 5499 5499 5500 5501 5501 5501 5503 5504 5506 5508 5510 5511 5512 5515 5517 5519 5521 5524 5526 5528 5529 5530 5531 5531 5531 5533 5534 5535 5536 5536 5535 5535 5534 5534 5534 5533
5462 5462 5460 5463 5467 5468 5475 5486 5492 5493 5494 5493 5492 5491 5491 5491 5491 5491 5492 5493 5495 5496 5498 5500 5501 5502 5505 5507 5509 5511 5515 5516 5518 5519 5520 5521 5521 5523 5525 5525 5526 5526 5526 5526 5525 5525 5524 5523 5523
5455 5454 5451 5448 5455 5462 5461 5471 5483 5486 5486 5484 5483 5482 5482 5482 5481 5482 5482 5483 5484 5486 5489 5491 5492 5493 5495 5497 5499 5501 5504 5506 5508 5509 5511 5511 5512 5514 5515 5515 5516 5517 5517 5517 5516 5516 5515 5514 5513